DW6036 Weather Reports


time (UTC)temp
C
wind
direction
speed
KPH
gust
KPH
rain 1hr
cm
rain 24hr
cm
rain mn
cm
humidity
%
barometer
mb
20260506130103 25 177 6.4 19.3 0.00 0.00 0.00 98 1010.4
20260506124522 24 146 6.4 14.5 0.00 0.00 0.00 99 1010.3
20260506123021 24 124 4.8 12.9 0.00 0.00 0.00 99 1010.2
20260506121517 24 148 4.8 12.9 0.00 0.00 0.00 99 1009.9
20260506120018 23 153 4.8 11.3 0.00 0.00 0.00 99 1009.8
20260506114607 23 139 4.8 11.3 0.00 0.00 0.00 99 1009.7
20260506113040 23 118 4.8 9.7 0.00 0.00 0.00 99 1009.7
20260506111530 23 122 6.4 11.3 0.00 0.00 0.00 99 1009.5
20260506110145 23 156 4.8 9.7 0.00 0.00 0.00 99 1009.4
20260506104528 23 125 4.8 9.7 0.00 0.00 0.00 99 1009.3
20260506103029 23 136 3.2 11.3 0.00 0.00 0.00 99 1009.1
20260506101538 23 117 3.2 9.7 0.00 0.00 0.00 99 1009.1
20260506100022 23 128 4.8 11.3 0.00 0.00 0.00 99 1009.3
20260506094524 23 134 4.8 9.7 0.00 0.00 0.00 98 1009.2
20260506093022 23 118 4.8 9.7 0.00 0.00 0.00 98 1009.4
20260506091518 23 137 3.2 8.0 0.00 0.00 0.00 98 1009.5
20260506090017 23 125 4.8 9.7 0.00 0.00 0.00 98 1009.7
20260506084517 23 153 4.8 9.7 0.00 0.00 0.00 98 1009.6
20260506083016 23 136 3.2 8.0 0.00 0.00 0.00 98 1009.7
20260506081514 23 136 3.2 11.3 0.00 0.00 0.00 98 1009.6
20260506073024 23 127 4.8 9.7 0.00 0.00 0.00 97 1009.9
20260506071510 23 141 4.8 11.3 0.00 0.00 0.00 97 1009.9
20260506061505 23 124 6.4 12.9 0.00 0.00 0.00 96 1010.0
20260506044636 23 143 11.3 17.7 0.00 0.00 0.00 96 1010.1
20260506043041 23 146 9.7 14.5 0.00 0.00 0.00 96 1010.1
20260506041553 23 163 8.0 19.3 0.00 0.00 0.00 96 1010.0
20260506040040 23 150 8.0 16.1 0.00 0.00 0.00 96 1010.1
20260506034605 23 112 8.0 14.5 0.00 0.00 0.00 96 1010.1
20260506033039 23 132 6.4 14.5 0.00 0.00 0.00 96 1010.1
20260506031541 23 140 8.0 16.1 0.00 0.00 0.00 96 1009.8
20260506030038 23 167 6.4 12.9 0.00 0.00 0.00 96 1009.7
20260506024536 23 138 8.0 16.1 0.00 0.00 0.00 96 1009.5
20260506023052 23 153 4.8 12.9 0.00 0.00 0.00 96 1009.4
20260506021535 23 139 8.0 14.5 0.00 0.00 0.00 96 1009.2
20260506020035 23 136 6.4 12.9 0.00 0.00 0.00 96 1009.1
20260506014534 24 137 8.0 16.1 0.00 0.00 0.00 95 1009.1
20260506011532 24 150 9.7 20.9 0.00 0.00 0.00 93 1008.6
20260506010032 24 182 11.3 20.9 0.00 0.00 0.00 93 1008.6
20260506004548 25 160 14.5 25.7 0.00 0.00 0.00 93 1008.6
20260506003041 25 142 9.7 22.5 0.00 0.00 0.00 92 1008.4
20260506001529 25 139 8.0 19.3 0.00 0.00 0.00 92 1008.6
20260506000030 25 160 9.7 27.4 0.00 0.00 0.00 92 1008.5
20260505233053 25 161 12.9 20.9 0.00 0.00 0.00 91 1008.6
20260505231607 25 141 12.9 25.7 0.00 0.00 0.00 90 1008.6
20260505230045 25 173 11.3 24.1 0.00 0.00 0.00 92 1008.7
20260505224543 25 129 14.5 27.4 0.00 0.00 0.00 91 1008.6
20260505223042 25 135 12.9 25.7 0.00 0.00 0.00 91 1008.6
20260505221541 26 42 11.3 25.7 0.00 0.00 0.00 90 1008.6
20260505220055 26 157 14.5 24.1 0.00 0.00 0.00 90 1008.7
20260505214541 25 188 14.5 25.7 0.00 0.00 0.00 91 1008.8
20260505213037 25 131 9.7 24.1 0.00 0.00 0.00 91 1008.9
20260505211544 25 190 9.7 27.4 0.00 0.00 0.00 91 1009.1
20260505210033 25 167 12.9 25.7 0.00 0.00 0.00 90 1009.3
20260505204535 25 162 12.9 24.1 0.00 0.00 0.00 90 1009.6
20260505203032 25 155 9.7 24.1 0.00 0.00 0.00 90 1009.5
20260505201535 26 185 12.9 32.2 0.00 0.00 0.00 89 1009.6
20260505200031 26 253 14.5 29.0 0.00 0.00 0.00 88 1009.6
20260505194536 26 231 14.5 30.6 0.00 0.00 0.00 88 1009.7
20260505193039 26 127 16.1 29.0 0.00 0.00 0.00 87 1009.9
20260505191541 26 133 14.5 30.6 0.00 0.00 0.00 87 1009.9
20260505190031 26 155 11.3 25.7 0.00 0.00 0.00 87 1009.9
20260505184529 26 185 16.1 27.4 0.00 0.00 0.00 85 1010.1
20260505183029 26 171 14.5 25.7 0.00 0.00 0.00 85 1010.1
20260505181527 27 155 14.5 27.4 0.00 0.00 0.00 84 1010.1
20260505180041 26 200 12.9 25.7 0.00 0.00 0.00 86 1010.2
20260505174535 26 139 12.9 27.4 0.00 0.00 0.00 87 1010.3
20260505173027 26 127 16.1 29.0 0.00 0.00 0.00 87 1010.5
20260505171530 26 239 12.9 24.1 0.00 0.00 0.00 87 1010.7
20260505170028 26 198 14.5 29.0 0.00 0.00 0.00 86 1010.6
20260505164522 26 170 14.5 30.6 0.00 0.00 0.00 84 1010.5
20260505163022 27 122 17.7 32.2 0.00 0.00 0.00 82 1010.4
20260505161518 26 212 20.9 32.2 0.00 0.00 0.00 83 1010.3
20260505153011 25 269 11.3 25.7 0.00 0.00 0.00 86 1010.6
20260505151512 25 221 11.3 25.7 0.00 0.00 0.00 86 1010.6